Location: *
(51.1248°S, 108.4023°W)
Time: 19:03:28
(UTC+00:00)

YAOGAN 10 - Visible Passes

Search period start: 24 January 2022 00:00
Search period end: 03 February 2022 00:00
Orbit: 625 x 626 km, 98.0° (Epoch: 24 January)

Date Brightness Start Highest point End Pass type
(mag) Time Alt. Az. Time Alt. Az. Time Alt. Az.
24 Jan ? 03:56:23 10° SW 03:57:11 10° SW 03:57:59 10° WSW visible
26 Jan ? 10:47:28 10° ESE 10:48:25 11° SE 10:49:22 10° SE visible
29 Jan ? 03:55:06 10° SW 03:56:06 11° SW 03:57:07 10° WSW visible
31 Jan ? 10:46:37 10° ESE 10:47:20 10° SE 10:48:04 10° SE visible
01 Feb ? 11:03:41 10° E 11:06:05 15° SE 11:08:30 10° SSE visible
